Time,TemperatureF,DewpointF,PressureIn,WindDirection,WindDirectionDegrees,WindSpeedMPH,WindSpeedGustMPH,Humidity,HourlyPrecipIn,Conditions,Clouds,dailyrainin,SoftwareType,DateUTC
2013-12-20 00:01:00,17.6,13.1,30.08,South,184,0.0,3.0,82,0.00,,,0.00,meteohub,2013-12-20 06:01:00,
2013-12-20 00:02:00,17.6,13.1,30.08,South,184,0.0,3.0,82,0.00,,,0.00,meteohub,2013-12-20 06:02:00,
2013-12-20 00:07:00,17.6,13.1,30.08,East,86,1.0,4.0,82,0.00,,,0.00,meteohub,2013-12-20 06:07:00,
2013-12-20 00:12:00,17.6,13.1,30.07,East,86,0.0,4.0,82,0.00,,,0.00,meteohub,2013-12-20 06:12:00,
2013-12-20 00:17:00,17.6,13.1,30.07,East,86,1.0,4.0,82,0.00,,,0.00,meteohub,2013-12-20 06:17:00,
2013-12-20 00:22:00,17.6,13.3,30.06,East,86,0.0,2.0,83,0.00,,,0.00,meteohub,2013-12-20 06:22:00,
2013-12-20 00:27:00,17.6,13.3,30.06,SSE,157,2.0,2.0,83,0.00,,,0.00,meteohub,2013-12-20 06:27:00,
2013-12-20 00:32:00,17.6,13.3,30.06,SSE,156,0.0,3.0,83,0.00,,,0.00,meteohub,2013-12-20 06:32:00,
2013-12-20 00:37:00,17.6,13.3,30.05,ESE,106,1.0,3.0,83,0.00,,,0.00,meteohub,2013-12-20 06:37:00,
2013-12-20 00:42:00,17.4,13.1,30.06,ESE,106,0.0,3.0,83,0.00,,,0.00,meteohub,2013-12-20 06:42:00,
2013-12-20 00:47:00,17.4,13.1,30.05,ESE,106,0.0,3.0,83,0.00,,,0.00,meteohub,2013-12-20 06:47:00,
2013-12-20 00:52:00,17.4,13.1,30.05,NE,53,0.0,6.0,83,0.00,,,0.00,meteohub,2013-12-20 06:52:00,
2013-12-20 00:57:00,17.4,13.1,30.06,ENE,65,1.0,6.0,83,0.00,,,0.00,meteohub,2013-12-20 06:57:00,
2013-12-20 01:02:00,17.4,13.1,30.05,ENE,65,0.0,6.0,83,0.00,,,0.00,meteohub,2013-12-20 07:02:00,
2013-12-20 01:07:00,17.4,13.1,30.06,ENE,65,0.0,4.0,83,0.00,,,0.00,meteohub,2013-12-20 07:07:00,
2013-12-20 01:12:00,17.2,12.9,30.06,ENE,67,0.0,4.0,83,0.00,,,0.00,meteohub,2013-12-20 07:12:00,
2013-12-20 01:17:00,17.2,12.9,30.06,ENE,67,3.0,4.0,83,0.00,,,0.00,meteohub,2013-12-20 07:17:00,
2013-12-20 01:22:00,17.2,12.9,30.05,ENE,69,0.0,3.0,83,0.00,,,0.00,meteohub,2013-12-20 07:22:00,
2013-12-20 01:27:00,17.2,12.9,30.05,ENE,69,0.0,5.0,83,0.00,,,0.00,meteohub,2013-12-20 07:27:00,
2013-12-20 01:32:00,17.1,12.7,30.05,ENE,69,0.0,5.0,83,0.00,,,0.00,meteohub,2013-12-20 07:32:00,
2013-12-20 01:37:00,17.1,12.7,30.05,ENE,69,0.0,3.0,83,0.00,,,0.00,meteohub,2013-12-20 07:37:00,
2013-12-20 01:42:00,17.1,12.7,30.05,ENE,69,0.0,3.0,83,0.00,,,0.00,meteohub,2013-12-20 07:42:00,
2013-12-20 01:47:00,17.1,12.7,30.05,ENE,69,0.0,2.0,83,0.00,,,0.00,meteohub,2013-12-20 07:47:00,
2013-12-20 01:52:00,17.1,13.1,30.05,ENE,69,0.0,2.0,84,0.00,,,0.00,meteohub,2013-12-20 07:52:00,
2013-12-20 01:57:00,17.1,13.1,30.05,ENE,69,0.0,2.0,84,0.00,,,0.00,meteohub,2013-12-20 07:57:00,
2013-12-20 02:02:00,17.1,12.7,30.05,ENE,69,0.0,4.0,83,0.00,,,0.00,meteohub,2013-12-20 08:02:00,
2013-12-20 02:07:00,17.1,13.1,30.05,ENE,69,0.0,4.0,84,0.00,,,0.00,meteohub,2013-12-20 08:07:00,
2013-12-20 02:12:00,17.1,13.1,30.05,ENE,69,2.0,4.0,84,0.00,,,0.00,meteohub,2013-12-20 08:12:00,
2013-12-20 02:17:00,17.1,13.1,30.05,ENE,69,1.0,3.0,84,0.00,,,0.00,meteohub,2013-12-20 08:17:00,
2013-12-20 02:22:00,17.1,13.1,30.05,ENE,69,0.0,3.0,84,0.00,,,0.00,meteohub,2013-12-20 08:22:00,
2013-12-20 02:27:00,17.1,13.1,30.05,ENE,70,2.0,3.0,84,0.00,,,0.00,meteohub,2013-12-20 08:27:00,
2013-12-20 02:32:00,17.1,13.1,30.05,ENE,70,0.0,3.0,84,0.00,,,0.00,meteohub,2013-12-20 08:32:00,
2013-12-20 02:37:00,17.1,13.1,30.06,ENE,70,3.0,3.0,84,0.00,,,0.00,meteohub,2013-12-20 08:37:00,
2013-12-20 02:42:00,17.2,13.3,30.05,ENE,69,0.0,3.0,84,0.00,,,0.00,meteohub,2013-12-20 08:42:00,
2013-12-20 02:47:00,17.2,13.3,30.05,ENE,70,0.0,3.0,84,0.00,,,0.00,meteohub,2013-12-20 08:47:00,
2013-12-20 02:52:00,17.2,15.3,30.05,East,80,1.0,3.0,92,0.00,,,0.00,meteohub,2013-12-20 08:52:00,
2013-12-20 02:57:00,17.2,13.3,30.05,East,80,0.0,3.0,84,0.00,,,0.00,meteohub,2013-12-20 08:57:00,
2013-12-20 03:02:00,17.2,13.3,30.05,ESE,115,2.0,3.0,84,0.00,,,0.00,meteohub,2013-12-20 09:02:00,
2013-12-20 03:07:00,17.2,13.3,30.05,SE,134,0.0,3.0,84,0.00,,,0.00,meteohub,2013-12-20 09:07:00,
2013-12-20 03:12:00,17.2,13.3,30.05,SE,134,0.0,3.0,84,0.00,,,0.00,meteohub,2013-12-20 09:12:00,
2013-12-20 03:17:00,17.2,13.3,30.05,ESE,123,2.0,3.0,84,0.00,,,0.00,meteohub,2013-12-20 09:17:00,
2013-12-20 03:22:00,17.4,13.5,30.05,ESE,122,2.0,2.0,84,0.00,,,0.00,meteohub,2013-12-20 09:22:00,
2013-12-20 03:27:00,17.4,13.5,30.05,East,85,0.0,2.0,84,0.00,,,0.00,meteohub,2013-12-20 09:27:00,
2013-12-20 03:32:00,17.4,13.5,30.05,East,84,0.0,4.0,84,0.00,,,0.00,meteohub,2013-12-20 09:32:00,
2013-12-20 03:37:00,17.4,13.5,30.05,East,84,0.0,4.0,84,0.00,,,0.00,meteohub,2013-12-20 09:37:00,
2013-12-20 03:42:00,17.4,13.5,30.05,East,86,1.0,4.0,84,0.00,,,0.00,meteohub,2013-12-20 09:42:00,
2013-12-20 03:47:00,17.4,13.5,30.05,East,86,0.0,3.0,84,0.00,,,0.00,meteohub,2013-12-20 09:47:00,
2013-12-20 03:52:00,17.4,13.5,30.04,East,86,0.0,3.0,84,0.00,,,0.00,meteohub,2013-12-20 09:52:00,
2013-12-20 03:57:00,17.4,13.5,30.05,East,86,0.0,2.0,84,0.00,,,0.00,meteohub,2013-12-20 09:57:00,
2013-12-20 04:02:00,17.4,13.5,30.05,East,86,0.0,2.0,84,0.00,,,0.00,meteohub,2013-12-20 10:02:00,
2013-12-20 04:07:00,17.4,13.5,30.04,East,86,0.0,2.0,84,0.00,,,0.00,meteohub,2013-12-20 10:07:00,
2013-12-20 04:12:00,17.4,13.5,30.04,East,86,0.0,2.0,84,0.00,,,0.00,meteohub,2013-12-20 10:12:00,
2013-12-20 04:17:00,17.4,13.5,30.04,East,86,0.0,2.0,84,0.00,,,0.00,meteohub,2013-12-20 10:17:00,
2013-12-20 04:22:00,17.4,13.5,30.04,East,86,0.0,4.0,84,0.00,,,0.00,meteohub,2013-12-20 10:22:00,
2013-12-20 04:27:00,17.4,13.5,30.05,East,86,0.0,4.0,84,0.00,,,0.00,meteohub,2013-12-20 10:27:00,
2013-12-20 04:32:00,17.4,13.5,30.05,East,86,0.0,2.0,84,0.00,,,0.00,meteohub,2013-12-20 10:32:00,
2013-12-20 04:37:00,17.4,13.5,30.05,East,85,0.0,4.0,84,0.00,,,0.00,meteohub,2013-12-20 10:37:00,
2013-12-20 04:42:00,17.4,13.5,30.05,East,85,0.0,4.0,84,0.00,,,0.00,meteohub,2013-12-20 10:42:00,
2013-12-20 04:47:00,17.4,13.5,30.05,East,85,0.0,4.0,84,0.00,,,0.00,meteohub,2013-12-20 10:47:00,
2013-12-20 04:52:00,17.4,13.5,30.05,East,84,0.0,2.0,84,0.00,,,0.00,meteohub,2013-12-20 10:52:00,
2013-12-20 04:57:00,17.4,13.5,30.05,East,85,0.0,1.0,84,0.00,,,0.00,meteohub,2013-12-20 10:57:00,
2013-12-20 05:02:00,17.4,13.5,30.05,East,86,0.0,3.0,84,0.00,,,0.00,meteohub,2013-12-20 11:02:00,
2013-12-20 05:07:00,17.4,13.5,30.05,East,86,0.0,3.0,84,0.00,,,0.00,meteohub,2013-12-20 11:07:00,
2013-12-20 05:12:00,17.4,13.5,30.04,East,86,0.0,3.0,84,0.00,,,0.00,meteohub,2013-12-20 11:12:00,
2013-12-20 05:17:00,17.4,13.5,30.05,East,86,0.0,3.0,84,0.00,,,0.00,meteohub,2013-12-20 11:17:00,
2013-12-20 05:22:00,17.4,13.5,30.05,East,85,0.0,3.0,84,0.00,,,0.00,meteohub,2013-12-20 11:22:00,
2013-12-20 05:27:00,17.4,13.5,30.05,East,86,0.0,3.0,84,0.00,,,0.00,meteohub,2013-12-20 11:27:00,
2013-12-20 05:32:00,17.4,13.5,30.05,East,86,1.0,3.0,84,0.00,,,0.00,meteohub,2013-12-20 11:32:00,
2013-12-20 05:37:00,17.4,13.5,30.06,East,85,0.0,2.0,84,0.00,,,0.00,meteohub,2013-12-20 11:37:00,
2013-12-20 05:42:00,17.4,13.5,30.06,East,84,0.0,2.0,84,0.00,,,0.00,meteohub,2013-12-20 11:42:00,
2013-12-20 05:47:00,17.4,13.5,30.06,East,84,0.0,2.0,84,0.00,,,0.00,meteohub,2013-12-20 11:47:00,
2013-12-20 05:52:00,17.2,13.3,30.06,East,86,0.0,3.0,84,0.00,,,0.00,meteohub,2013-12-20 11:52:00,
2013-12-20 05:57:00,17.2,13.3,30.06,East,85,1.0,3.0,84,0.00,,,0.00,meteohub,2013-12-20 11:57:00,
2013-12-20 06:02:00,17.1,13.1,30.06,East,84,0.0,3.0,84,0.00,,,0.00,meteohub,2013-12-20 12:02:00,
2013-12-20 06:07:00,17.1,13.1,30.06,East,84,2.0,2.0,84,0.00,,,0.00,meteohub,2013-12-20 12:07:00,
2013-12-20 06:12:00,16.9,12.9,30.06,East,85,1.0,3.0,84,0.00,,,0.00,meteohub,2013-12-20 12:12:00,
2013-12-20 06:17:00,16.7,12.7,30.05,East,83,2.0,3.0,84,0.00,,,0.00,meteohub,2013-12-20 12:17:00,
2013-12-20 06:22:00,16.5,12.6,30.05,East,84,0.0,3.0,84,0.00,,,0.00,meteohub,2013-12-20 12:22:00,
2013-12-20 06:27:00,16.3,12.4,30.05,East,84,1.0,3.0,84,0.00,,,0.00,meteohub,2013-12-20 12:27:00,
2013-12-20 06:32:00,16.3,12.4,30.05,East,84,1.0,2.0,84,0.00,,,0.00,meteohub,2013-12-20 12:32:00,
2013-12-20 06:37:00,16.2,11.8,30.05,East,84,2.0,3.0,83,0.00,,,0.00,meteohub,2013-12-20 12:37:00,
2013-12-20 06:42:00,16.2,11.8,30.05,East,84,0.0,3.0,83,0.00,,,0.00,meteohub,2013-12-20 12:42:00,
2013-12-20 06:48:00,16.0,12.0,30.05,East,84,0.0,3.0,84,0.00,,,0.00,meteohub,2013-12-20 12:48:00,
2013-12-20 06:53:00,16.0,12.0,30.05,East,84,2.0,2.0,84,0.00,,,0.00,meteohub,2013-12-20 12:53:00,
2013-12-20 06:58:00,16.0,12.0,30.04,East,83,1.0,2.0,84,0.00,,,0.00,meteohub,2013-12-20 12:58:00,
2013-12-20 07:03:00,16.0,12.0,30.04,East,82,0.0,3.0,84,0.00,,,0.00,meteohub,2013-12-20 13:03:00,
2013-12-20 07:08:00,15.8,11.8,30.05,East,83,2.0,3.0,84,0.00,,,0.00,meteohub,2013-12-20 13:08:00,
2013-12-20 07:13:00,15.8,11.8,30.04,East,83,1.0,3.0,84,0.00,,,0.00,meteohub,2013-12-20 13:13:00,
2013-12-20 07:18:00,15.8,13.8,30.04,East,83,0.0,3.0,92,0.00,,,0.00,meteohub,2013-12-20 13:18:00,
2013-12-20 07:23:00,15.8,11.8,30.05,East,83,2.0,3.0,84,0.00,,,0.00,meteohub,2013-12-20 13:23:00,
2013-12-20 07:28:00,15.8,13.8,30.05,East,83,0.0,3.0,92,0.00,,,0.00,meteohub,2013-12-20 13:28:00,
2013-12-20 07:33:00,15.8,13.8,30.05,East,83,0.0,3.0,92,0.00,,,0.00,meteohub,2013-12-20 13:33:00,
2013-12-20 07:38:00,15.8,11.8,30.04,East,83,0.0,3.0,84,0.00,,,0.00,meteohub,2013-12-20 13:38:00,
2013-12-20 07:43:00,15.8,11.8,30.05,East,83,1.0,2.0,84,0.00,,,0.00,meteohub,2013-12-20 13:43:00,
2013-12-20 07:48:00,15.8,11.8,30.05,East,83,0.0,2.0,84,0.00,,,0.00,meteohub,2013-12-20 13:48:00,
2013-12-20 07:53:00,16.0,12.0,30.05,East,83,0.0,2.0,84,0.00,,,0.00,meteohub,2013-12-20 13:53:00,
2013-12-20 07:58:00,16.0,12.0,30.05,East,82,0.0,2.0,84,0.00,,,0.00,meteohub,2013-12-20 13:58:00,
2013-12-20 08:04:00,16.0,12.0,30.05,East,82,0.0,2.0,84,0.00,,,0.00,meteohub,2013-12-20 14:04:00,
2013-12-20 08:09:00,16.0,12.0,30.05,East,82,0.0,2.0,84,0.00,,,0.00,meteohub,2013-12-20 14:09:00,
2013-12-20 08:14:00,16.0,12.0,30.05,East,82,0.0,3.0,84,0.00,,,0.00,meteohub,2013-12-20 14:14:00,
2013-12-20 08:19:00,16.0,12.0,30.05,East,82,0.0,3.0,84,0.00,,,0.00,meteohub,2013-12-20 14:19:00,
2013-12-20 08:24:00,16.0,12.0,30.05,East,82,0.0,1.0,84,0.00,,,0.00,meteohub,2013-12-20 14:24:00,
2013-12-20 08:29:00,16.0,12.0,30.05,East,82,0.0,3.0,84,0.00,,,0.00,meteohub,2013-12-20 14:29:00,
2013-12-20 08:34:00,16.0,12.0,30.05,East,82,0.0,3.0,84,0.00,,,0.00,meteohub,2013-12-20 14:34:00,
2013-12-20 08:39:00,16.2,12.2,30.05,East,82,0.0,3.0,84,0.00,,,0.00,meteohub,2013-12-20 14:39:00,
2013-12-20 08:44:00,16.2,12.2,30.05,East,82,0.0,1.0,84,0.00,,,0.00,meteohub,2013-12-20 14:44:00,
2013-12-20 08:49:00,16.2,12.2,30.06,East,82,0.0,1.0,84,0.00,,,0.00,meteohub,2013-12-20 14:49:00,
2013-12-20 08:54:00,16.3,12.4,30.06,East,82,0.0,1.0,84,0.00,,,0.00,meteohub,2013-12-20 14:54:00,
2013-12-20 08:59:00,16.3,12.4,30.06,East,82,0.0,1.0,84,0.00,,,0.00,meteohub,2013-12-20 14:59:00,
2013-12-20 09:04:00,16.3,12.4,30.06,East,82,0.0,1.0,84,0.00,,,0.00,meteohub,2013-12-20 15:04:00,
2013-12-20 09:09:00,16.5,12.6,30.05,East,82,0.0,2.0,84,0.00,,,0.00,meteohub,2013-12-20 15:09:00,
2013-12-20 09:14:00,16.5,14.5,30.05,East,82,0.0,2.0,92,0.00,,,0.00,meteohub,2013-12-20 15:14:00,
2013-12-20 09:19:00,16.5,12.6,30.05,East,82,0.0,2.0,84,0.00,,,0.00,meteohub,2013-12-20 15:19:00,
2013-12-20 09:25:00,16.5,12.6,30.05,ENE,78,1.0,2.0,84,0.00,,,0.00,meteohub,2013-12-20 15:25:00,
2013-12-20 09:30:00,16.7,12.7,30.05,ENE,75,0.0,3.0,84,0.00,,,0.00,meteohub,2013-12-20 15:30:00,
2013-12-20 09:35:00,16.7,12.7,30.05,ENE,75,0.0,3.0,84,0.00,,,0.00,meteohub,2013-12-20 15:35:00,
2013-12-20 09:40:00,16.9,12.9,30.05,ENE,75,0.0,3.0,84,0.00,,,0.00,meteohub,2013-12-20 15:40:00,
2013-12-20 09:45:00,16.9,12.9,30.05,ENE,75,0.0,3.0,84,0.00,,,0.00,meteohub,2013-12-20 15:45:00,
2013-12-20 09:50:00,16.9,12.9,30.05,ENE,76,0.0,2.0,84,0.00,,,0.00,meteohub,2013-12-20 15:50:00,
2013-12-20 09:55:00,16.9,12.9,30.05,ENE,76,0.0,1.0,84,0.00,,,0.00,meteohub,2013-12-20 15:55:00,
2013-12-20 10:00:00,17.1,13.1,30.05,ENE,76,1.0,3.0,84,0.00,,,0.00,meteohub,2013-12-20 16:00:00,
2013-12-20 10:05:00,17.1,13.1,30.05,ENE,76,0.0,3.0,84,0.00,,,0.00,meteohub,2013-12-20 16:05:00,
2013-12-20 10:10:00,17.1,13.1,30.05,ENE,77,2.0,3.0,84,0.00,,,0.00,meteohub,2013-12-20 16:10:00,
2013-12-20 10:15:00,17.2,13.3,30.05,East,80,1.0,3.0,84,0.00,,,0.00,meteohub,2013-12-20 16:15:00,
2013-12-20 10:20:00,17.2,13.3,30.04,East,88,0.0,2.0,84,0.00,,,0.00,meteohub,2013-12-20 16:20:00,
2013-12-20 10:25:00,17.4,13.5,30.04,East,89,0.0,2.0,84,0.00,,,0.00,meteohub,2013-12-20 16:25:00,
2013-12-20 10:30:00,17.4,13.5,30.04,East,89,0.0,2.0,84,0.00,,,0.00,meteohub,2013-12-20 16:30:00,
2013-12-20 10:35:00,17.6,13.6,30.03,East,88,0.0,2.0,84,0.00,,,0.00,meteohub,2013-12-20 16:35:00,
2013-12-20 10:41:00,17.8,13.8,30.03,East,83,1.0,3.0,84,0.00,,,0.00,meteohub,2013-12-20 16:41:00,
2013-12-20 10:46:00,17.8,13.5,30.03,East,84,0.0,3.0,83,0.00,,,0.00,meteohub,2013-12-20 16:46:00,
2013-12-20 10:51:00,18.0,13.6,30.03,ENE,76,1.0,3.0,83,0.00,,,0.00,meteohub,2013-12-20 16:51:00,
2013-12-20 10:56:00,18.0,13.6,30.03,ENE,76,0.0,3.0,83,0.00,,,0.00,meteohub,2013-12-20 16:56:00,
2013-12-20 11:01:00,18.0,13.6,30.02,ENE,76,0.0,4.0,83,0.00,,,0.00,meteohub,2013-12-20 17:01:00,
2013-12-20 11:06:00,18.0,13.6,30.02,ENE,76,0.0,4.0,83,0.00,,,0.00,meteohub,2013-12-20 17:06:00,
2013-12-20 11:11:00,18.0,13.6,30.02,ENE,78,0.0,3.0,83,0.00,,,0.00,meteohub,2013-12-20 17:11:00,
2013-12-20 11:16:00,18.1,13.8,30.02,ENE,78,0.0,2.0,83,0.00,,,0.00,meteohub,2013-12-20 17:16:00,
2013-12-20 11:21:00,18.3,14.0,30.02,East,80,0.0,2.0,83,0.00,,,0.00,meteohub,2013-12-20 17:21:00,
2013-12-20 11:26:00,18.5,14.2,30.01,East,80,0.0,1.0,83,0.00,,,0.00,meteohub,2013-12-20 17:26:00,
2013-12-20 11:31:00,18.7,14.4,30.01,East,79,0.0,2.0,83,0.00,,,0.00,meteohub,2013-12-20 17:31:00,
2013-12-20 11:36:00,18.9,14.5,30.02,East,82,0.0,2.0,83,0.00,,,0.00,meteohub,2013-12-20 17:36:00,
2013-12-20 11:41:00,18.9,14.5,30.02,East,83,0.0,2.0,83,0.00,,,0.00,meteohub,2013-12-20 17:41:00,
2013-12-20 11:46:00,19.0,14.5,30.01,East,86,0.0,1.0,82,0.00,,,0.00,meteohub,2013-12-20 17:46:00,
2013-12-20 11:51:00,19.0,14.5,30.02,East,86,0.0,1.0,82,0.00,,,0.00,meteohub,2013-12-20 17:51:00,
2013-12-20 11:56:00,19.0,14.5,30.02,East,84,0.0,1.0,82,0.00,,,0.00,meteohub,2013-12-20 17:56:00,
2013-12-20 12:02:00,19.0,14.5,30.01,East,83,0.0,2.0,82,0.00,,,0.00,meteohub,2013-12-20 18:02:00,
2013-12-20 12:07:00,18.9,14.4,30.01,East,84,0.0,2.0,82,0.00,,,0.00,meteohub,2013-12-20 18:07:00,
2013-12-20 12:12:00,18.9,14.4,30.01,East,84,0.0,2.0,82,0.00,,,0.00,meteohub,2013-12-20 18:12:00,
2013-12-20 12:17:00,18.9,14.4,30.00,East,84,0.0,2.0,82,0.00,,,0.00,meteohub,2013-12-20 18:17:00,
2013-12-20 12:22:00,19.0,14.5,30.00,East,84,0.0,0.0,82,0.00,,,0.00,meteohub,2013-12-20 18:22:00,
2013-12-20 12:27:00,19.0,14.2,30.00,East,84,0.0,0.0,81,0.00,,,0.00,meteohub,2013-12-20 18:27:00,
2013-12-20 12:32:00,19.0,14.2,30.00,East,83,0.0,0.0,81,0.00,,,0.00,meteohub,2013-12-20 18:32:00,
2013-12-20 12:37:00,19.0,14.2,30.00,East,82,0.0,0.0,81,0.00,,,0.00,meteohub,2013-12-20 18:37:00,
2013-12-20 12:42:00,19.0,14.2,30.00,East,82,0.0,0.0,81,0.00,,,0.00,meteohub,2013-12-20 18:42:00,
2013-12-20 12:47:00,19.0,14.2,29.99,East,80,1.0,2.0,81,0.00,,,0.00,meteohub,2013-12-20 18:47:00,
2013-12-20 12:52:00,19.0,14.2,29.99,ENE,74,0.0,2.0,81,0.00,,,0.00,meteohub,2013-12-20 18:52:00,
2013-12-20 12:57:00,19.2,14.4,29.99,ENE,74,0.0,2.0,81,0.00,,,0.00,meteohub,2013-12-20 18:57:00,
2013-12-20 13:02:00,19.4,14.5,29.99,ENE,74,0.0,2.0,81,0.00,,,0.00,meteohub,2013-12-20 19:02:00,
2013-12-20 13:07:00,19.6,14.7,29.99,ENE,74,0.0,2.0,81,0.00,,,0.00,meteohub,2013-12-20 19:07:00,
2013-12-20 13:12:00,19.8,14.5,29.98,ENE,74,0.0,2.0,80,0.00,,,0.00,meteohub,2013-12-20 19:12:00,
2013-12-20 13:17:00,19.8,14.5,29.98,ENE,74,0.0,1.0,80,0.00,,,0.00,meteohub,2013-12-20 19:17:00,
2013-12-20 13:22:00,19.8,14.5,29.98,East,82,0.0,3.0,80,0.00,,,0.00,meteohub,2013-12-20 19:22:00,
2013-12-20 13:27:00,19.8,14.5,29.98,East,81,0.0,3.0,80,0.00,,,0.00,meteohub,2013-12-20 19:27:00,
2013-12-20 13:32:00,19.8,14.5,29.98,East,81,0.0,3.0,80,0.00,,,0.00,meteohub,2013-12-20 19:32:00,
2013-12-20 13:37:00,19.9,14.7,29.98,East,82,0.0,2.0,80,0.00,,,0.00,meteohub,2013-12-20 19:37:00,
2013-12-20 13:42:00,19.9,14.7,29.97,East,82,0.0,2.0,80,0.00,,,0.00,meteohub,2013-12-20 19:42:00,
2013-12-20 13:47:00,19.9,14.5,29.97,East,81,2.0,2.0,79,0.00,,,0.00,meteohub,2013-12-20 19:47:00,
2013-12-20 13:52:00,19.9,14.5,29.97,East,80,0.0,2.0,79,0.00,,,0.00,meteohub,2013-12-20 19:52:00,
2013-12-20 13:57:00,19.9,14.5,29.97,East,80,0.0,2.0,79,0.00,,,0.00,meteohub,2013-12-20 19:57:00,
2013-12-20 14:02:00,19.9,14.5,29.97,East,80,0.0,2.0,79,0.00,,,0.00,meteohub,2013-12-20 20:02:00,
2013-12-20 14:07:00,20.1,14.7,29.96,East,80,0.0,1.0,79,0.00,,,0.00,meteohub,2013-12-20 20:07:00,
2013-12-20 14:12:00,20.1,14.7,29.96,East,80,0.0,2.0,79,0.00,,,0.00,meteohub,2013-12-20 20:12:00,
2013-12-20 14:17:00,20.3,14.9,29.96,East,80,0.0,2.0,79,0.00,,,0.00,meteohub,2013-12-20 20:17:00,
2013-12-20 14:22:00,20.3,14.9,29.96,East,80,0.0,2.0,79,0.00,,,0.00,meteohub,2013-12-20 20:22:00,
2013-12-20 14:28:00,20.3,14.9,29.96,East,80,0.0,2.0,79,0.00,,,0.00,meteohub,2013-12-20 20:28:00,
2013-12-20 14:33:00,20.3,14.9,29.96,East,80,0.0,2.0,79,0.00,,,0.00,meteohub,2013-12-20 20:33:00,
2013-12-20 14:38:00,20.5,15.1,29.96,East,80,1.0,2.0,79,0.00,,,0.00,meteohub,2013-12-20 20:38:00,
2013-12-20 14:43:00,20.5,15.1,29.96,East,80,0.0,2.0,79,0.00,,,0.00,meteohub,2013-12-20 20:43:00,
2013-12-20 14:48:00,20.3,14.5,29.96,East,80,0.0,2.0,78,0.00,,,0.00,meteohub,2013-12-20 20:48:00,
2013-12-20 14:53:00,20.3,14.5,29.96,East,80,0.0,2.0,78,0.00,,,0.00,meteohub,2013-12-20 20:53:00,
2013-12-20 14:58:00,20.3,14.5,29.96,East,80,0.0,2.0,78,0.00,,,0.00,meteohub,2013-12-20 20:58:00,
2013-12-20 15:03:00,20.3,14.5,29.96,East,80,2.0,0.0,78,0.00,,,0.00,meteohub,2013-12-20 21:03:00,
2013-12-20 15:08:00,20.3,14.5,29.96,East,80,0.0,2.0,78,0.00,,,0.00,meteohub,2013-12-20 21:08:00,
2013-12-20 15:13:00,20.1,14.4,29.97,ENE,76,1.0,2.0,78,0.00,,,0.00,meteohub,2013-12-20 21:13:00,
2013-12-20 15:18:00,20.1,14.4,29.96,ENE,74,0.0,2.0,78,0.00,,,0.00,meteohub,2013-12-20 21:18:00,
2013-12-20 15:23:00,19.9,14.2,29.96,ENE,74,0.0,3.0,78,0.00,,,0.00,meteohub,2013-12-20 21:23:00,
2013-12-20 15:28:00,19.9,14.2,29.96,ENE,74,0.0,3.0,78,0.00,,,0.00,meteohub,2013-12-20 21:28:00,
2013-12-20 15:33:00,19.9,14.2,29.96,ENE,74,0.0,0.0,78,0.00,,,0.00,meteohub,2013-12-20 21:33:00,
2013-12-20 15:38:00,19.9,14.2,29.96,ENE,74,0.0,0.0,78,0.00,,,0.00,meteohub,2013-12-20 21:38:00,
2013-12-20 15:44:00,19.8,14.0,29.96,ENE,74,1.0,2.0,78,0.00,,,0.00,meteohub,2013-12-20 21:44:00,
2013-12-20 15:49:00,19.8,14.0,29.96,ENE,74,1.0,2.0,78,0.00,,,0.00,meteohub,2013-12-20 21:49:00,
2013-12-20 15:54:00,19.8,14.0,29.96,ENE,74,1.0,2.0,78,0.00,,,0.00,meteohub,2013-12-20 21:54:00,
2013-12-20 15:59:00,19.8,14.0,29.96,ENE,74,0.0,3.0,78,0.00,,,0.00,meteohub,2013-12-20 21:59:00,
2013-12-20 16:04:00,19.8,14.0,29.95,ENE,74,0.0,3.0,78,0.00,,,0.00,meteohub,2013-12-20 22:04:00,
2013-12-20 16:09:00,19.8,14.0,29.96,ENE,74,0.0,2.0,78,0.00,,,0.00,meteohub,2013-12-20 22:09:00,
2013-12-20 16:14:00,19.8,14.4,29.96,ENE,74,0.0,0.0,79,0.00,,,0.00,meteohub,2013-12-20 22:14:00,
2013-12-20 16:19:00,19.6,14.2,29.96,ENE,74,0.0,0.0,79,0.00,,,0.00,meteohub,2013-12-20 22:19:00,
2013-12-20 16:24:00,19.6,14.2,29.96,ENE,74,0.0,1.0,79,0.00,,,0.00,meteohub,2013-12-20 22:24:00,
2013-12-20 16:29:00,19.6,14.2,29.96,ENE,74,0.0,1.0,79,0.00,,,0.00,meteohub,2013-12-20 22:29:00,
2013-12-20 16:34:00,19.6,14.2,29.96,ENE,74,0.0,1.0,79,0.00,,,0.00,meteohub,2013-12-20 22:34:00,
2013-12-20 16:39:00,19.4,14.0,29.96,ENE,74,0.0,1.0,79,0.00,,,0.00,meteohub,2013-12-20 22:39:00,
2013-12-20 16:44:00,19.2,13.8,29.96,ENE,74,0.0,1.0,79,0.00,,,0.00,meteohub,2013-12-20 22:44:00,
2013-12-20 16:50:00,19.2,13.8,29.96,ENE,74,0.0,2.0,79,0.00,,,0.00,meteohub,2013-12-20 22:50:00,
2013-12-20 16:55:00,19.2,13.8,29.96,ENE,74,0.0,2.0,79,0.00,,,0.00,meteohub,2013-12-20 22:55:00,
2013-12-20 17:00:00,19.2,13.8,29.96,ENE,74,0.0,2.0,79,0.00,,,0.00,meteohub,2013-12-20 23:00:00,
2013-12-20 17:05:00,19.2,13.8,29.95,ENE,74,0.0,0.0,79,0.00,,,0.00,meteohub,2013-12-20 23:05:00,
2013-12-20 17:10:00,19.2,13.8,29.95,ENE,74,0.0,0.0,79,0.00,,,0.00,meteohub,2013-12-20 23:10:00,
2013-12-20 17:15:00,19.2,13.8,29.95,ENE,74,0.0,0.0,79,0.00,,,0.00,meteohub,2013-12-20 23:15:00,
2013-12-20 17:20:00,19.2,13.8,29.94,ENE,74,0.0,0.0,79,0.00,,,0.00,meteohub,2013-12-20 23:20:00,
2013-12-20 17:25:00,19.0,13.6,29.94,ENE,74,0.0,0.0,79,0.00,,,0.00,meteohub,2013-12-20 23:25:00,
2013-12-20 17:30:00,19.2,13.8,29.94,ENE,74,0.0,0.0,79,0.00,,,0.00,meteohub,2013-12-20 23:30:00,
2013-12-20 17:35:00,19.0,13.6,29.94,ENE,74,0.0,0.0,79,0.00,,,0.00,meteohub,2013-12-20 23:35:00,
2013-12-20 17:40:00,19.0,13.6,29.94,ENE,74,0.0,1.0,79,0.00,,,0.00,meteohub,2013-12-20 23:40:00,
2013-12-20 17:45:00,19.0,13.8,29.94,ENE,74,0.0,1.0,80,0.00,,,0.00,meteohub,2013-12-20 23:45:00,
2013-12-20 17:50:00,19.0,13.8,29.95,ENE,74,0.0,1.0,80,0.00,,,0.00,meteohub,2013-12-20 23:50:00,
2013-12-20 17:55:00,19.0,13.8,29.95,ENE,74,0.0,0.0,80,0.00,,,0.00,meteohub,2013-12-20 23:55:00,
2013-12-20 18:00:00,19.0,13.8,29.95,ENE,74,0.0,0.0,80,0.00,,,0.00,meteohub,2013-12-21 00:00:00,
2013-12-20 18:05:00,19.0,13.8,29.96,ENE,74,0.0,0.0,80,0.00,,,0.00,meteohub,2013-12-21 00:05:00,
2013-12-20 18:11:00,19.0,13.8,29.96,ENE,74,0.0,0.0,80,0.00,,,0.00,meteohub,2013-12-21 00:11:00,
2013-12-20 18:16:00,19.0,13.8,29.96,ENE,74,0.0,0.0,80,0.00,,,0.00,meteohub,2013-12-21 00:16:00,
2013-12-20 18:21:00,19.0,13.8,29.96,ENE,74,0.0,0.0,80,0.00,,,0.00,meteohub,2013-12-21 00:21:00,
2013-12-20 18:26:00,18.9,13.6,29.95,ENE,74,0.0,0.0,80,0.00,,,0.00,meteohub,2013-12-21 00:26:00,
2013-12-20 18:31:00,18.9,13.6,29.95,ENE,74,0.0,0.0,80,0.00,,,0.00,meteohub,2013-12-21 00:31:00,
2013-12-20 18:36:00,18.9,13.6,29.96,ENE,74,0.0,0.0,80,0.00,,,0.00,meteohub,2013-12-21 00:36:00,
2013-12-20 18:41:00,18.9,13.6,29.96,ENE,74,0.0,0.0,80,0.00,,,0.00,meteohub,2013-12-21 00:41:00,
2013-12-20 18:46:00,18.9,13.6,29.96,ENE,74,0.0,0.0,80,0.00,,,0.00,meteohub,2013-12-21 00:46:00,
2013-12-20 18:51:00,18.9,13.6,29.96,ENE,74,0.0,0.0,80,0.00,,,0.00,meteohub,2013-12-21 00:51:00,
2013-12-20 18:56:00,18.9,13.6,29.96,ENE,74,0.0,0.0,80,0.00,,,0.00,meteohub,2013-12-21 00:56:00,
2013-12-20 19:01:00,18.9,13.6,29.96,ENE,74,0.0,0.0,80,0.00,,,0.00,meteohub,2013-12-21 01:01:00,
2013-12-20 19:06:00,18.9,13.6,29.96,ENE,74,0.0,0.0,80,0.00,,,0.00,meteohub,2013-12-21 01:06:00,
2013-12-20 19:11:00,18.9,13.6,29.96,ENE,74,0.0,0.0,80,0.00,,,0.00,meteohub,2013-12-21 01:11:00,
2013-12-20 19:16:00,18.9,13.6,29.96,ENE,74,0.0,0.0,80,0.00,,,0.00,meteohub,2013-12-21 01:16:00,
2013-12-20 19:21:00,18.9,13.6,29.96,ENE,74,0.0,0.0,80,0.00,,,0.00,meteohub,2013-12-21 01:21:00,
2013-12-20 19:27:00,18.9,13.6,29.95,ENE,74,0.0,0.0,80,0.00,,,0.00,meteohub,2013-12-21 01:27:00,
2013-12-20 19:32:00,18.9,13.6,29.95,ENE,74,0.0,0.0,80,0.00,,,0.00,meteohub,2013-12-21 01:32:00,
2013-12-20 19:37:00,18.9,13.6,29.96,ENE,74,0.0,0.0,80,0.00,,,0.00,meteohub,2013-12-21 01:37:00,
2013-12-20 19:42:00,18.9,13.6,29.96,ENE,74,0.0,0.0,80,0.00,,,0.00,meteohub,2013-12-21 01:42:00,
2013-12-20 19:47:00,18.9,13.6,29.96,ENE,74,0.0,0.0,80,0.00,,,0.00,meteohub,2013-12-21 01:47:00,
2013-12-20 19:52:00,18.9,13.6,29.96,ENE,74,0.0,0.0,80,0.00,,,0.00,meteohub,2013-12-21 01:52:00,
2013-12-20 19:57:00,18.9,13.6,29.96,ENE,74,0.0,0.0,80,0.00,,,0.00,meteohub,2013-12-21 01:57:00,
2013-12-20 20:02:00,18.9,14.0,29.96,ENE,74,0.0,0.0,81,0.00,,,0.00,meteohub,2013-12-21 02:02:00,
2013-12-20 20:07:00,19.0,14.2,29.96,ENE,74,0.0,0.0,81,0.00,,,0.00,meteohub,2013-12-21 02:07:00,
2013-12-20 20:12:00,18.9,14.0,29.96,ENE,74,0.0,0.0,81,0.00,,,0.00,meteohub,2013-12-21 02:12:00,
2013-12-20 20:17:00,18.9,14.0,29.95,ENE,74,0.0,0.0,81,0.00,,,0.00,meteohub,2013-12-21 02:17:00,
2013-12-20 20:22:00,19.0,14.2,29.95,ENE,74,0.0,0.0,81,0.00,,,0.00,meteohub,2013-12-21 02:22:00,
2013-12-20 20:27:00,19.0,14.2,29.95,ENE,74,0.0,0.0,81,0.00,,,0.00,meteohub,2013-12-21 02:27:00,
2013-12-20 20:32:00,19.0,14.2,29.94,ENE,74,0.0,0.0,81,0.00,,,0.00,meteohub,2013-12-21 02:32:00,
2013-12-20 20:37:00,19.0,14.2,29.94,ENE,74,0.0,0.0,81,0.00,,,0.00,meteohub,2013-12-21 02:37:00,
2013-12-20 20:38:00,19.0,14.2,29.94,ENE,74,0.0,0.0,81,0.00,,,0.00,meteohub,2013-12-21 02:38:00,
2013-12-20 20:43:00,19.0,14.2,29.94,ENE,74,0.0,0.0,81,0.00,,,0.00,meteohub,2013-12-21 02:43:00,
2013-12-20 20:48:00,19.0,14.2,29.94,ENE,74,0.0,0.0,81,0.00,,,0.00,meteohub,2013-12-21 02:48:00,
2013-12-20 20:53:00,19.0,14.2,29.94,ENE,74,0.0,0.0,81,0.00,,,0.00,meteohub,2013-12-21 02:53:00,
2013-12-20 20:58:00,19.0,14.2,29.94,ENE,74,0.0,0.0,81,0.00,,,0.00,meteohub,2013-12-21 02:58:00,
2013-12-20 21:03:00,19.0,14.2,29.93,ENE,74,0.0,0.0,81,0.00,,,0.00,meteohub,2013-12-21 03:03:00,
2013-12-20 21:08:00,19.0,14.2,29.94,ENE,74,0.0,0.0,81,0.00,,,0.00,meteohub,2013-12-21 03:08:00,
2013-12-20 21:13:00,19.0,14.2,29.93,ENE,74,0.0,0.0,81,0.00,,,0.00,meteohub,2013-12-21 03:13:00,
2013-12-20 21:18:00,19.0,14.2,29.93,ENE,74,0.0,0.0,81,0.00,,,0.00,meteohub,2013-12-21 03:18:00,
2013-12-20 21:24:00,19.0,14.2,29.92,ENE,74,0.0,0.0,81,0.00,,,0.00,meteohub,2013-12-21 03:24:00,
2013-12-20 21:29:00,19.0,14.2,29.92,ENE,74,0.0,0.0,81,0.00,,,0.00,meteohub,2013-12-21 03:29:00,
2013-12-20 21:34:00,19.0,14.2,29.92,ENE,74,0.0,0.0,81,0.00,,,0.00,meteohub,2013-12-21 03:34:00,
2013-12-20 21:39:00,19.0,14.2,29.92,ENE,74,0.0,0.0,81,0.00,,,0.00,meteohub,2013-12-21 03:39:00,
2013-12-20 21:44:00,19.0,14.2,29.92,ENE,74,0.0,0.0,81,0.00,,,0.00,meteohub,2013-12-21 03:44:00,
2013-12-20 21:49:00,18.9,14.0,29.91,ENE,74,0.0,0.0,81,0.00,,,0.00,meteohub,2013-12-21 03:49:00,
2013-12-20 21:54:00,18.9,14.0,29.91,ENE,74,0.0,0.0,81,0.00,,,0.00,meteohub,2013-12-21 03:54:00,
2013-12-20 21:59:00,18.9,14.0,29.91,ENE,74,0.0,0.0,81,0.00,,,0.00,meteohub,2013-12-21 03:59:00,
2013-12-20 22:04:00,18.9,14.4,29.91,ENE,74,0.0,0.0,82,0.00,,,0.00,meteohub,2013-12-21 04:04:00,
2013-12-20 22:09:00,18.9,14.4,29.91,ENE,74,0.0,0.0,82,0.00,,,0.00,meteohub,2013-12-21 04:09:00,
2013-12-20 22:14:00,18.9,14.4,29.91,ENE,74,0.0,0.0,82,0.00,,,0.00,meteohub,2013-12-21 04:14:00,
2013-12-20 22:19:00,18.9,14.4,29.91,ENE,74,0.0,0.0,82,0.00,,,0.00,meteohub,2013-12-21 04:19:00,
2013-12-20 22:24:00,18.9,14.4,29.91,ENE,74,0.0,0.0,82,0.00,,,0.00,meteohub,2013-12-21 04:24:00,
2013-12-20 22:29:00,18.9,14.4,29.91,ENE,74,0.0,0.0,82,0.00,,,0.00,meteohub,2013-12-21 04:29:00,
2013-12-20 22:34:00,18.9,14.4,29.91,ENE,74,0.0,0.0,82,0.00,,,0.00,meteohub,2013-12-21 04:34:00,
2013-12-20 22:40:00,18.9,14.4,29.91,ENE,74,0.0,0.0,82,0.00,,,0.00,meteohub,2013-12-21 04:40:00,
2013-12-20 22:45:00,18.9,14.4,29.90,ENE,74,0.0,0.0,82,0.00,,,0.00,meteohub,2013-12-21 04:45:00,
2013-12-20 22:50:00,18.9,14.4,29.90,ENE,74,0.0,0.0,82,0.00,,,0.00,meteohub,2013-12-21 04:50:00,
2013-12-20 22:55:00,18.9,14.4,29.90,ENE,74,0.0,0.0,82,0.00,,,0.00,meteohub,2013-12-21 04:55:00,
2013-12-20 23:00:00,18.9,14.4,29.91,ENE,74,0.0,0.0,82,0.00,,,0.00,meteohub,2013-12-21 05:00:00,
2013-12-20 23:01:00,18.9,14.4,29.91,ENE,74,0.0,0.0,82,0.00,,,0.00,meteohub,2013-12-21 05:01:00,
2013-12-20 23:02:00,18.9,14.4,29.91,ENE,74,0.0,0.0,82,0.00,,,0.00,meteohub,2013-12-21 05:02:00,
2013-12-20 23:04:00,18.9,14.4,29.91,ENE,74,0.0,0.0,82,0.00,,,0.00,meteohub,2013-12-21 05:04:00,
2013-12-20 23:06:00,18.9,14.4,29.91,ENE,74,0.0,0.0,82,0.00,,,0.00,meteohub,2013-12-21 05:06:00,
2013-12-20 23:08:00,18.9,14.4,29.92,ENE,74,0.0,0.0,82,0.00,,,0.00,meteohub,2013-12-21 05:08:00,
2013-12-20 23:14:00,18.9,14.4,29.92,ENE,74,0.0,0.0,82,0.00,,,0.00,meteohub,2013-12-21 05:14:00,
2013-12-20 23:19:00,18.9,14.4,29.91,ENE,74,0.0,0.0,82,0.00,,,0.00,meteohub,2013-12-21 05:19:00,
2013-12-20 23:24:00,18.9,14.4,29.92,ENE,74,0.0,0.0,82,0.00,,,0.00,meteohub,2013-12-21 05:24:00,
2013-12-20 23:29:00,18.9,14.4,29.91,ENE,74,0.0,0.0,82,0.00,,,0.00,meteohub,2013-12-21 05:29:00,
2013-12-20 23:34:00,18.9,14.4,29.92,ENE,74,0.0,0.0,82,0.00,,,0.00,meteohub,2013-12-21 05:34:00,
2013-12-20 23:39:00,18.9,14.4,29.92,ENE,74,0.0,0.0,82,0.00,,,0.00,meteohub,2013-12-21 05:39:00,
2013-12-20 23:44:00,18.9,14.4,29.92,ENE,74,0.0,0.0,82,0.00,,,0.00,meteohub,2013-12-21 05:44:00,
2013-12-20 23:49:00,18.9,14.4,29.92,ENE,74,0.0,0.0,82,0.00,,,0.00,meteohub,2013-12-21 05:49:00,
2013-12-20 23:54:00,18.9,14.4,29.92,ENE,74,0.0,0.0,82,0.00,,,0.00,meteohub,2013-12-21 05:54:00,
2013-12-20 23:59:00,18.7,14.2,29.92,ENE,74,0.0,0.0,82,0.00,,,0.00,meteohub,2013-12-21 05:59:00,